Time,TemperatureF,DewpointF,PressureIn,WindDirection,WindDirectionDegrees,WindSpeedMPH,WindSpeedGustMPH,Humidity,HourlyPrecipIn,Conditions,Clouds,dailyrainin,SoftwareType,DateUTC
2013-04-28 00:02:00,48.0,-99.9,29.99,NNW,340,6.0,-999.0,-999,-99.99,,,-99.99,,2013-04-28 05:02:00,
2013-04-28 00:12:00,48.0,-99.9,29.99,NNW,340,6.0,-999.0,-999,-99.99,,,-99.99,,2013-04-28 05:12:00,
2013-04-28 00:22:00,48.0,-99.9,29.99,NNW,340,6.0,-999.0,-999,-99.99,,,-99.99,,2013-04-28 05:22:00,
2013-04-28 00:32:00,48.0,-99.9,29.98,NNW,340,6.0,-999.0,-999,-99.99,,,-99.99,,2013-04-28 05:32:00,
2013-04-28 00:42:00,48.0,-99.9,29.98,NNW,330,6.0,-999.0,-999,-99.99,,,-99.99,,2013-04-28 05:42:00,
2013-04-28 00:52:00,48.0,-99.9,29.98,NNW,340,5.0,-999.0,-999,-99.99,,,-99.99,,2013-04-28 05:52:00,
2013-04-28 01:02:00,48.0,-99.9,29.98,NNW,340,5.0,-999.0,-999,-99.99,,,-99.99,,2013-04-28 06:02:00,
2013-04-28 01:13:00,48.0,-99.9,29.98,NNW,340,5.0,-999.0,-999,-99.99,,,-99.99,,2013-04-28 06:13:00,
2013-04-28 01:22:00,48.0,-99.9,29.98,NNW,330,6.0,-999.0,-999,-99.99,,,-99.99,,2013-04-28 06:22:00,
2013-04-28 01:32:00,48.0,-99.9,29.98,NNW,330,5.0,-999.0,-999,-99.99,,,-99.99,,2013-04-28 06:32:00,
2013-04-28 01:42:00,48.0,-99.9,29.98,NNW,330,5.0,-999.0,-999,-99.99,,,-99.99,,2013-04-28 06:42:00,
2013-04-28 01:52:00,48.0,-99.9,29.98,NW,320,5.0,-999.0,-999,-99.99,,,-99.99,,2013-04-28 06:52:00,
2013-04-28 02:02:00,48.0,-99.9,29.98,NW,320,5.0,-999.0,-999,-99.99,,,-99.99,,2013-04-28 07:02:00,
2013-04-28 02:11:00,48.0,-99.9,29.98,NW,320,5.0,-999.0,-999,-99.99,,,-99.99,,2013-04-28 07:11:00,
2013-04-28 02:22:00,48.0,-99.9,29.97,NW,310,5.0,-999.0,-999,-99.99,,,-99.99,,2013-04-28 07:22:00,
2013-04-28 02:32:00,48.0,-99.9,29.97,NW,320,6.0,-999.0,-999,-99.99,,,-99.99,,2013-04-28 07:32:00,
2013-04-28 02:42:00,48.0,-99.9,29.97,WNW,300,6.0,-999.0,-999,-99.99,,,-99.99,,2013-04-28 07:42:00,
2013-04-28 02:52:00,48.0,-99.9,29.96,WNW,300,6.0,-999.0,-999,-99.99,,,-99.99,,2013-04-28 07:52:00,
2013-04-28 03:02:00,48.0,-99.9,29.96,WNW,300,6.0,-999.0,-999,-99.99,,,-99.99,,2013-04-28 08:02:00,
2013-04-28 03:12:00,48.0,-99.9,29.96,WNW,300,6.0,-999.0,-999,-99.99,,,-99.99,,2013-04-28 08:12:00,
2013-04-28 03:21:00,48.0,-99.9,29.96,WNW,290,5.0,-999.0,-999,-99.99,,,-99.99,,2013-04-28 08:21:00,
2013-04-28 03:32:00,48.0,-99.9,29.95,NW,310,5.0,-999.0,-999,-99.99,,,-99.99,,2013-04-28 08:32:00,
2013-04-28 03:42:00,48.0,-99.9,29.96,NW,320,6.0,-999.0,-999,-99.99,,,-99.99,,2013-04-28 08:42:00,
2013-04-28 03:52:00,48.0,-99.9,29.96,NW,310,6.0,-999.0,-999,-99.99,,,-99.99,,2013-04-28 08:52:00,
2013-04-28 04:01:00,48.0,-99.9,29.96,NW,310,6.0,-999.0,-999,-99.99,,,-99.99,,2013-04-28 09:01:00,
2013-04-28 04:12:00,48.0,-99.9,29.96,NW,310,6.0,-999.0,-999,-99.99,,,-99.99,,2013-04-28 09:12:00,
2013-04-28 04:22:00,48.0,-99.9,29.96,NW,310,9.0,-999.0,-999,-99.99,,,-99.99,,2013-04-28 09:22:00,
2013-04-28 04:33:00,48.0,-99.9,29.96,NW,310,7.0,-999.0,-999,-99.99,,,-99.99,,2013-04-28 09:33:00,
2013-04-28 04:43:00,48.0,-99.9,29.96,NW,310,8.0,-999.0,-999,-99.99,,,-99.99,,2013-04-28 09:43:00,
2013-04-28 04:53:00,48.0,-99.9,29.96,NW,310,8.0,-999.0,-999,-99.99,,,-99.99,,2013-04-28 09:53:00,
2013-04-28 05:03:00,48.0,-99.9,29.96,NW,310,8.0,-999.0,-999,-99.99,,,-99.99,,2013-04-28 10:03:00,
2013-04-28 05:12:00,48.0,-99.9,29.96,NW,310,8.0,-999.0,-999,-99.99,,,-99.99,,2013-04-28 10:12:00,
2013-04-28 05:23:00,48.0,-99.9,29.96,NW,310,9.0,-999.0,-999,-99.99,,,-99.99,,2013-04-28 10:23:00,
2013-04-28 05:32:00,48.0,-99.9,29.96,NW,310,9.0,-999.0,-999,-99.99,,,-99.99,,2013-04-28 10:32:00,
2013-04-28 05:42:00,48.0,-99.9,29.95,NW,310,12.0,-999.0,-999,-99.99,,,-99.99,,2013-04-28 10:42:00,
2013-04-28 05:53:00,48.0,-99.9,29.96,WNW,290,10.0,-999.0,-999,-99.99,,,-99.99,,2013-04-28 10:53:00,
2013-04-28 06:02:00,48.0,-99.9,29.96,WNW,290,10.0,-999.0,-999,-99.99,,,-99.99,,2013-04-28 11:02:00,
2013-04-28 06:11:00,48.0,-99.9,29.96,WNW,290,10.0,-999.0,-999,-99.99,,,-99.99,,2013-04-28 11:11:00,
2013-04-28 06:22:00,48.0,-99.9,29.96,WNW,300,9.0,-999.0,-999,-99.99,,,-99.99,,2013-04-28 11:22:00,
2013-04-28 06:32:00,48.0,-99.9,29.97,NW,310,10.0,-999.0,-999,-99.99,,,-99.99,,2013-04-28 11:32:00,
2013-04-28 06:42:00,48.0,-99.9,29.96,NW,310,10.0,-999.0,-999,-99.99,,,-99.99,,2013-04-28 11:42:00,
2013-04-28 06:52:00,48.0,-99.9,29.97,WNW,300,7.0,-999.0,-999,-99.99,,,-99.99,,2013-04-28 11:52:00,
2013-04-28 07:02:00,48.0,-99.9,29.97,WNW,300,7.0,-999.0,-999,-99.99,,,-99.99,,2013-04-28 12:02:00,
2013-04-28 07:12:00,48.0,-99.9,29.97,WNW,300,7.0,-999.0,-999,-99.99,,,-99.99,,2013-04-28 12:12:00,
2013-04-28 07:22:00,46.0,-99.9,29.97,NW,310,8.0,-999.0,-999,-99.99,,,-99.99,,2013-04-28 12:22:00,
2013-04-28 07:32:00,46.0,-99.9,29.97,NW,310,9.0,-999.0,-999,-99.99,,,-99.99,,2013-04-28 12:32:00,
2013-04-28 07:42:00,46.0,-99.9,29.98,WNW,300,10.0,-999.0,-999,-99.99,,,-99.99,,2013-04-28 12:42:00,
2013-04-28 07:52:00,46.0,-99.9,29.99,WNW,300,14.0,-999.0,-999,-99.99,,,-99.99,,2013-04-28 12:52:00,
2013-04-28 08:02:00,46.0,-99.9,29.99,WNW,300,14.0,-999.0,-999,-99.99,,,-99.99,,2013-04-28 13:02:00,
2013-04-28 08:11:00,46.0,-99.9,29.99,WNW,300,14.0,-999.0,-999,-99.99,,,-99.99,,2013-04-28 13:11:00,
2013-04-28 08:22:00,46.0,-99.9,30.00,NW,310,9.0,-999.0,-999,-99.99,,,-99.99,,2013-04-28 13:22:00,
2013-04-28 08:32:00,46.0,-99.9,30.00,NW,310,8.0,-999.0,-999,-99.99,,,-99.99,,2013-04-28 13:32:00,
2013-04-28 08:42:00,46.0,46.0,30.00,NW,310,8.0,-999.0,100,-99.99,,,-99.99,,2013-04-28 13:42:00,
2013-04-28 08:52:00,48.0,48.0,30.00,WNW,300,7.0,-999.0,100,-99.99,,,-99.99,,2013-04-28 13:52:00,
2013-04-28 09:01:00,48.0,48.0,30.00,WNW,300,7.0,-999.0,100,-99.99,,,-99.99,,2013-04-28 14:01:00,
2013-04-28 09:11:00,48.0,48.0,30.00,WNW,300,7.0,-999.0,100,-99.99,,,-99.99,,2013-04-28 14:11:00,
2013-04-28 09:21:00,48.0,48.0,30.00,WNW,290,8.0,-999.0,100,-99.99,,,-99.99,,2013-04-28 14:21:00,
2013-04-28 09:32:00,48.0,48.0,30.01,WNW,290,12.0,-999.0,100,-99.99,,,-99.99,,2013-04-28 14:32:00,
2013-04-28 09:42:00,48.0,48.0,30.01,WNW,290,10.0,-999.0,100,-99.99,,,-99.99,,2013-04-28 14:42:00,
2013-04-28 09:52:00,48.0,48.0,30.01,WNW,290,10.0,-999.0,100,-99.99,,,-99.99,,2013-04-28 14:52:00,
2013-04-28 10:01:00,48.0,48.0,30.01,WNW,290,10.0,-999.0,100,-99.99,,,-99.99,,2013-04-28 15:01:00,
2013-04-28 10:12:00,48.0,48.0,30.01,WNW,290,10.0,-999.0,100,-99.99,,,-99.99,,2013-04-28 15:12:00,
2013-04-28 10:21:00,48.0,48.0,30.00,NW,320,7.0,-999.0,100,-99.99,,,-99.99,,2013-04-28 15:21:00,
2013-04-28 10:32:00,48.0,48.0,29.99,NW,310,7.0,-999.0,100,-99.99,,,-99.99,,2013-04-28 15:32:00,
2013-04-28 10:42:00,48.0,48.0,30.00,West,280,10.0,-999.0,100,-99.99,,,-99.99,,2013-04-28 15:42:00,
2013-04-28 10:53:00,48.0,48.0,30.00,WNW,290,10.0,-999.0,100,-99.99,,,-99.99,,2013-04-28 15:53:00,
2013-04-28 11:03:00,48.0,48.0,30.00,WNW,290,10.0,-999.0,100,-99.99,,,-99.99,,2013-04-28 16:03:00,
2013-04-28 11:13:00,48.0,48.0,30.00,WNW,290,10.0,-999.0,100,-99.99,,,-99.99,,2013-04-28 16:13:00,
2013-04-28 11:23:00,50.0,50.0,30.00,WNW,290,3.0,-999.0,100,-99.99,,,-99.99,,2013-04-28 16:23:00,
2013-04-28 11:33:00,50.0,50.0,30.00,WNW,290,3.0,-999.0,100,-99.99,,,-99.99,,2013-04-28 16:33:00,
2013-04-28 11:43:00,50.0,50.0,30.00,WNW,290,3.0,-999.0,100,-99.99,,,-99.99,,2013-04-28 16:43:00,
2013-04-28 11:52:00,50.0,50.0,30.01,West,280,3.0,-999.0,100,-99.99,,,-99.99,,2013-04-28 16:52:00,
2013-04-28 12:02:00,50.0,50.0,30.01,West,280,3.0,-999.0,100,-99.99,,,-99.99,,2013-04-28 17:02:00,
2013-04-28 12:12:00,50.0,50.0,30.01,West,280,3.0,-999.0,100,-99.99,,,-99.99,,2013-04-28 17:12:00,
2013-04-28 12:22:00,50.0,50.0,30.01,SSW,210,5.0,-999.0,100,-99.99,,,-99.99,,2013-04-28 17:22:00,
2013-04-28 12:32:00,50.0,50.0,30.00,SW,220,3.0,-999.0,100,-99.99,,,-99.99,,2013-04-28 17:32:00,
2013-04-28 12:43:00,50.0,50.0,30.00,SW,220,3.0,-999.0,100,-99.99,,,-99.99,,2013-04-28 17:43:00,
2013-04-28 12:52:00,52.0,50.0,30.00,WSW,250,6.0,-999.0,93,-99.99,,,-99.99,,2013-04-28 17:52:00,
2013-04-28 13:02:00,52.0,50.0,30.00,WSW,250,6.0,-999.0,93,-99.99,,,-99.99,,2013-04-28 18:02:00,
2013-04-28 13:12:00,52.0,50.0,30.00,WSW,250,6.0,-999.0,93,-99.99,,,-99.99,,2013-04-28 18:12:00,
2013-04-28 13:22:00,52.0,50.0,29.98,WSW,250,6.0,-999.0,93,-99.99,,,-99.99,,2013-04-28 18:22:00,
2013-04-28 13:32:00,54.0,50.0,29.98,WSW,250,8.0,-999.0,87,-99.99,,,-99.99,,2013-04-28 18:32:00,
2013-04-28 13:42:00,54.0,50.0,29.98,West,260,5.0,-999.0,87,-99.99,,,-99.99,,2013-04-28 18:42:00,
2013-04-28 13:52:00,55.0,50.0,29.97,West,280,8.0,-999.0,81,-99.99,,,-99.99,,2013-04-28 18:52:00,
2013-04-28 14:02:00,55.0,50.0,29.97,West,280,8.0,-999.0,81,-99.99,,,-99.99,,2013-04-28 19:02:00,
2013-04-28 14:11:00,55.0,50.0,29.97,West,280,8.0,-999.0,81,-99.99,,,-99.99,,2013-04-28 19:11:00,
2013-04-28 14:21:00,55.0,50.0,29.97,SW,230,8.0,-999.0,81,-99.99,,,-99.99,,2013-04-28 19:21:00,
2013-04-28 14:32:00,55.0,50.0,29.97,West,270,6.0,-999.0,81,-99.99,,,-99.99,,2013-04-28 19:32:00,
2013-04-28 14:42:00,55.0,50.0,29.97,WNW,290,5.0,-999.0,81,-99.99,,,-99.99,,2013-04-28 19:42:00,
2013-04-28 14:52:00,55.0,50.0,29.97,West,270,6.0,-999.0,81,-99.99,,,-99.99,,2013-04-28 19:52:00,
2013-04-28 15:02:00,55.0,50.0,29.97,West,270,6.0,-999.0,81,-99.99,,,-99.99,,2013-04-28 20:02:00,
2013-04-28 15:11:00,55.0,50.0,29.97,West,270,6.0,-999.0,81,-99.99,,,-99.99,,2013-04-28 20:11:00,
2013-04-28 15:22:00,57.0,52.0,29.95,WSW,240,5.0,-999.0,82,-99.99,,,-99.99,,2013-04-28 20:22:00,
2013-04-28 15:32:00,59.0,50.0,29.94,SW,230,6.0,-999.0,72,-99.99,,,-99.99,,2013-04-28 20:32:00,
2013-04-28 15:42:00,59.0,52.0,29.94,WSW,250,6.0,-999.0,76,-99.99,,,-99.99,,2013-04-28 20:42:00,
2013-04-28 15:52:00,59.0,50.0,29.93,West,280,5.0,-999.0,72,-99.99,,,-99.99,,2013-04-28 20:52:00,
2013-04-28 16:01:00,59.0,50.0,29.93,West,280,5.0,-999.0,72,-99.99,,,-99.99,,2013-04-28 21:01:00,
2013-04-28 16:11:00,59.0,50.0,29.93,West,280,5.0,-999.0,72,-99.99,,,-99.99,,2013-04-28 21:11:00,
2013-04-28 16:22:00,61.0,52.0,29.92,West,270,8.0,-999.0,72,-99.99,,,-99.99,,2013-04-28 21:22:00,
2013-04-28 16:32:00,61.0,52.0,29.92,West,270,5.0,-999.0,72,-99.99,,,-99.99,,2013-04-28 21:32:00,
2013-04-28 16:42:00,61.0,52.0,29.92,North,0,0.0,-999.0,72,-99.99,,,-99.99,,2013-04-28 21:42:00,
2013-04-28 16:53:00,61.0,52.0,29.92,WSW,240,5.0,-999.0,72,-99.99,,,-99.99,,2013-04-28 21:53:00,
2013-04-28 17:03:00,61.0,52.0,29.92,WSW,240,5.0,-999.0,72,-99.99,,,-99.99,,2013-04-28 22:03:00,
2013-04-28 17:12:00,61.0,52.0,29.92,WSW,240,5.0,-999.0,72,-99.99,,,-99.99,,2013-04-28 22:12:00,
2013-04-28 17:22:00,61.0,52.0,29.91,SW,220,6.0,-999.0,72,-99.99,,,-99.99,,2013-04-28 22:22:00,
2013-04-28 17:33:00,63.0,52.0,29.90,WSW,240,6.0,-999.0,67,-99.99,,,-99.99,,2013-04-28 22:33:00,
2013-04-28 17:42:00,63.0,52.0,29.91,SSW,210,6.0,-999.0,67,-99.99,,,-99.99,,2013-04-28 22:42:00,
2013-04-28 17:52:00,61.0,52.0,29.90,SSW,200,5.0,-999.0,72,-99.99,,,-99.99,,2013-04-28 22:52:00,
2013-04-28 18:02:00,61.0,52.0,29.90,SSW,200,5.0,-999.0,72,-99.99,,,-99.99,,2013-04-28 23:02:00,
2013-04-28 18:12:00,61.0,52.0,29.90,SSW,200,5.0,-999.0,72,-99.99,,,-99.99,,2013-04-28 23:12:00,
2013-04-28 18:22:00,61.0,52.0,29.90,South,180,5.0,-999.0,72,-99.99,,,-99.99,,2013-04-28 23:22:00,
2013-04-28 18:32:00,61.0,52.0,29.90,SW,220,3.0,-999.0,72,-99.99,,,-99.99,,2013-04-28 23:32:00,
2013-04-28 18:42:00,61.0,52.0,29.90,South,180,5.0,-999.0,72,-99.99,,,-99.99,,2013-04-28 23:42:00,
2013-04-28 18:52:00,61.0,52.0,29.90,SSE,160,7.0,-999.0,72,-99.99,,,-99.99,,2013-04-28 23:52:00,
2013-04-28 19:01:00,61.0,52.0,29.90,SSE,160,7.0,-999.0,72,-99.99,,,-99.99,,2013-04-29 00:01:00,
2013-04-28 19:11:00,61.0,52.0,29.90,SSE,160,7.0,-999.0,72,-99.99,,,-99.99,,2013-04-29 00:11:00,
2013-04-28 19:22:00,59.0,54.0,29.89,South,180,6.0,-999.0,82,-99.99,,,-99.99,,2013-04-29 00:22:00,
2013-04-28 19:32:00,59.0,52.0,29.89,SSE,160,5.0,-999.0,76,-99.99,,,-99.99,,2013-04-29 00:32:00,
2013-04-28 19:42:00,59.0,52.0,29.89,SSE,160,5.0,-999.0,76,-99.99,,,-99.99,,2013-04-29 00:42:00,
2013-04-28 19:52:00,57.0,52.0,29.89,South,170,5.0,-999.0,82,-99.99,,,-99.99,,2013-04-29 00:52:00,
2013-04-28 20:01:00,57.0,52.0,29.89,South,170,5.0,-999.0,82,-99.99,,,-99.99,,2013-04-29 01:01:00,
2013-04-28 20:12:00,57.0,52.0,29.89,South,170,5.0,-999.0,82,-99.99,,,-99.99,,2013-04-29 01:12:00,
2013-04-28 20:21:00,55.0,52.0,29.89,SSE,150,5.0,-999.0,87,-99.99,,,-99.99,,2013-04-29 01:21:00,
2013-04-28 20:32:00,54.0,52.0,29.89,SSE,160,6.0,-999.0,93,-99.99,,,-99.99,,2013-04-29 01:32:00,
2013-04-28 20:42:00,54.0,52.0,29.89,SSE,150,6.0,-999.0,93,-99.99,,,-99.99,,2013-04-29 01:42:00,
2013-04-28 20:52:00,54.0,52.0,29.89,SSE,150,6.0,-999.0,93,-99.99,,,-99.99,,2013-04-29 01:52:00,
2013-04-28 21:02:00,54.0,52.0,29.89,SSE,150,6.0,-999.0,93,-99.99,,,-99.99,,2013-04-29 02:02:00,
2013-04-28 21:11:00,54.0,52.0,29.89,SSE,150,6.0,-999.0,93,-99.99,,,-99.99,,2013-04-29 02:11:00,
2013-04-28 21:21:00,52.0,50.0,29.90,SSE,150,8.0,-999.0,93,-99.99,,,-99.99,,2013-04-29 02:21:00,
2013-04-28 21:32:00,52.0,50.0,29.91,SSE,150,6.0,-999.0,93,-99.99,,,-99.99,,2013-04-29 02:32:00,
2013-04-28 21:42:00,52.0,52.0,29.91,SSE,150,5.0,-999.0,100,-99.99,,,-99.99,,2013-04-29 02:42:00,
2013-04-28 21:52:00,52.0,52.0,29.91,SSE,150,5.0,-999.0,100,-99.99,,,-99.99,,2013-04-29 02:52:00,
2013-04-28 22:01:00,52.0,52.0,29.91,SSE,150,5.0,-999.0,100,-99.99,,,-99.99,,2013-04-29 03:01:00,
2013-04-28 22:12:00,52.0,52.0,29.91,SSE,150,5.0,-999.0,100,-99.99,,,-99.99,,2013-04-29 03:12:00,
2013-04-28 22:21:00,50.0,50.0,29.91,SSE,150,7.0,-999.0,100,-99.99,,,-99.99,,2013-04-29 03:21:00,
2013-04-28 22:33:00,50.0,50.0,29.92,SSE,150,5.0,-999.0,100,-99.99,,,-99.99,,2013-04-29 03:33:00,
2013-04-28 22:43:00,50.0,50.0,29.91,SSE,150,6.0,-999.0,100,-99.99,,,-99.99,,2013-04-29 03:43:00,
2013-04-28 22:53:00,48.0,48.0,29.91,SSE,150,6.0,-999.0,100,-99.99,,,-99.99,,2013-04-29 03:53:00,
2013-04-28 23:03:00,48.0,48.0,29.91,SSE,150,6.0,-999.0,100,-99.99,,,-99.99,,2013-04-29 04:03:00,
2013-04-28 23:13:00,48.0,48.0,29.91,SSE,150,6.0,-999.0,100,-99.99,,,-99.99,,2013-04-29 04:13:00,
2013-04-28 23:23:00,48.0,48.0,29.90,SSE,150,6.0,-999.0,100,-99.99,,,-99.99,,2013-04-29 04:23:00,
2013-04-28 23:33:00,48.0,48.0,29.90,SSE,150,6.0,-999.0,100,-99.99,,,-99.99,,2013-04-29 04:33:00,
2013-04-28 23:43:00,48.0,48.0,29.90,SSE,150,6.0,-999.0,100,-99.99,,,-99.99,,2013-04-29 04:43:00,
2013-04-28 23:52:00,48.0,48.0,29.90,SSE,150,7.0,-999.0,100,-99.99,,,-99.99,,2013-04-29 04:52:00,